Location: C�gliari
(39.2170°N, 9.1170°E)
Time: 23:37:49
(UTC+01:00)

ISS - Visible Passes

Search period start: 18 January 2019 00:00
Search period end: 28 January 2019 00:00
Orbit: 404 x 410 km, 51.6° (Epoch: 18 January)

Date Brightness Start Highest point End Pass type
(mag) Time Alt. Az. Time Alt. Az. Time Alt. Az.
20 Jan -1.7 19:33:31 10° SSW 19:34:50 21° SSW 19:34:50 21° SSW visible
21 Jan -2.5 18:42:43 10° S 18:45:27 24° SE 18:46:01 23° ESE visible
22 Jan -3.0 19:27:10 10° WSW 19:29:52 50° W 19:29:52 50° W visible
23 Jan -3.8 18:35:47 10° SW 18:39:03 68° SE 18:40:53 24° ENE visible
23 Jan -0.3 20:13:24 10° WNW 20:13:36 11° WNW 20:13:36 11° WNW visible
24 Jan -2.3 19:21:23 10° W 19:24:17 28° NNW 19:24:32 28° NNW visible
25 Jan -3.0 18:29:35 10° WSW 18:32:46 46° NNW 18:35:23 14° NE visible
26 Jan -1.6 19:16:00 10° WNW 19:18:14 17° NNW 19:18:52 16° N visible
27 Jan -1.9 18:23:52 10° W 18:26:36 23° NNW 18:29:20 10° NNE visible
